Вернуться в каталог

GAOFEN 14

АктивенНаукаSSO
NORAD 47231·PAYLOAD·🇨🇳 China

Запущен Dec 6, 2020 с Xichang Satellite Launch Center

Loading…

Ближайшие Пролёты (ближайшие 24 часа)

TLE

СвежийSource: Space-Track

Эпоха: Sep 14, 2026, 13:02 UTC

1 47231U 20092A   26257.54373454  .00005040  00000-0  20033-3 0  9997
2 47231  97.4644 327.6477 0005231 182.9419 177.1789 15.25747337321453

Отслеживайте GAOFEN 14 в реальном времени с AllMySat

Download on the App Store